Location: Emerald Isle
(34.6779°N, 76.9508°W)
Time: 20:26:40
(UTC-05:00)

OTV 5 (USA 277) - Visible Passes

Search period start: 23 January 2018 00:00
Search period end: 02 February 2018 00:00
Orbit: 404 x 417 km, 43.0° (Epoch: 07 September)

Date Brightness Start Highest point End Pass type
(mag) Time Alt. Az. Time Alt. Az. Time Alt. Az.
23 Jan ? 19:27:10 10° W 19:29:15 27° NW 19:29:15 27° NW visible
24 Jan ? 18:35:51 10° W 18:39:07 46° NNW 18:40:43 25° NE visible
25 Jan ? 19:22:58 10° WNW 19:24:54 20° NNW 19:24:54 20° NNW visible
26 Jan ? 18:31:34 10° WNW 18:34:29 26° NNW 18:36:18 17° NNE visible
27 Jan ? 19:18:43 10° NW 19:20:26 18° NNW 19:20:26 18° NNW visible
28 Jan ? 18:27:23 10° NW 18:29:58 20° N 18:31:48 14° NE visible
29 Jan ? 19:14:06 10° NW 19:15:58 19° NNW 19:15:58 19° NNW visible
30 Jan ? 18:22:59 10° NW 18:25:30 19° N 18:27:23 13° NE visible
31 Jan ? 19:09:13 10° NW 19:11:38 27° N 19:11:38 27° N visible
01 Feb ? 18:18:12 10° NW 18:21:02 24° NNE 18:23:11 14° ENE visible
01 Feb ? 19:55:16 10° WNW 19:55:58 15° WNW 19:55:58 15° WNW visible
